[[{"header":{"parameterUnit":"m.s-1","parameterCategory":1,"la1":30.2991,"la2":30.254,"lo1":-89.0895,"lo2":-89.0444,"dy":0.0017,"dx":0.0017,"nx":28,"ny":28,"refTime":"2024-10-20T21:00:00:Z","depth":0,"parameterNumber":2,"parameterNumberName":"U-component_of_WINDS"},"data":[0,0,0,0,0,0,0,0,0,0,0,0,0,0,0,0,0,0,0,0,0,0,0,0,0,0,0,0,0,0,0,0,0,0,0,0,0,0,0,0,0,0,0,0,0,0,0,0,0,0,0,0,0,0,0,0,0,0,-2.6243,-2.6243,0,-2.6271,-2.6271,-2.6271,-2.6225,-2.6224,-2.6222,-2.622,-2.6248,-2.625,-2.6252,0,0,0,0,0,0,0,0,0,0,0,0,0,-2.6151,-2.6153,-2.6243,-2.6243,-2.6244,-2.6271,-2.6271,-2.6271,-2.6225,-2.6223,-2.6222,-2.622,-2.6247,-2.625,-2.6253,0,0,0,0,0,0,0,0,0,0,0,0,0,-2.6186,-2.6153,-2.6243,-2.6224,-2.6223,-2.627,-2.6271,-2.6271,-2.6226,-2.6223,-2.6221,-2.6219,-2.6247,-2.625,-2.6253,-2.632,0,0,-2.6263,-2.6264,0,0,0,0,0,0,0,0,-2.6184,-2.6189,-2.6227,-2.6225,-2.6224,-2.6242,-2.6248,-2.6288,-2.6226,-2.6225,-2.622,-2.6218,-2.6248,-2.6251,-2.6261,-2.6322,-2.6323,-2.6263,-2.6265,-2.6267,-2.6268,0,0,0,0,0,0,0,-2.6181,-2.6188,-2.6254,-2.6227,-2.6226,-2.6214,-2.6217,-2.6256,-2.6249,-2.6225,-2.6221,-2.6225,-2.6247,-2.6258,-2.6262,-2.6323,-2.6263,-2.6266,-2.6268,-2.6269,-2.6442,-2.6444,0,0,0,0,0,0,-2.6181,-2.6186,-2.6253,-2.6255,-2.6198,-2.6218,-2.622,-2.6239,-2.6249,-2.6248,-2.6227,-2.6223,-2.6254,-2.6258,-2.6262,-2.6343,-2.6267,-2.627,-2.6272,-2.6439,-2.6443,-2.6445,0,0,0,0,0,0,-2.618,-2.6188,-2.6252,-2.622,-2.6227,-2.6222,-2.6243,-2.624,-2.6252,-2.6251,-2.6249,-2.624,-2.6252,-2.6258,-2.6307,-2.6344,-2.6271,-2.6274,-2.6436,-2.644,-2.6444,-2.6505,0,0,0,0,0,0,-2.6177,-2.6187,-2.6213,-2.622,-2.6229,-2.6296,-2.6245,-2.6243,-2.6258,-2.6252,-2.6262,-2.6262,-2.6251,-2.6302,-2.631,-2.6347,-2.6277,-2.6433,-2.6438,-2.6443,-2.65,-2.651,-2.652,0,0,0,0,0,-2.6174,-2.6228,-2.6214,-2.6223,-2.626,-2.6298,-2.6303,-2.6289,-2.6261,-2.6287,-2.6286,-2.6261,-2.6338,-2.6307,-2.6316,-2.6354,-2.6431,-2.6437,-2.6442,-2.6495,-2.6508,-2.6519,0,0,0,0,0,0,-2.6225,-2.6229,-2.6214,-2.6272,-2.6285,-2.629,-2.6322,-2.6303,-2.6325,-2.6319,-2.6301,-2.6303,-2.6356,-2.636,-2.6326,-2.6421,-2.638,-2.6387,-2.6417,-2.6429,-2.6439,-2.6438,-2.628,0,0,0,0,0,-2.6243,-2.6273,-2.6275,-2.6326,-2.6334,-2.6327,-2.6343,-2.6332,-2.6344,-2.6349,-2.6352,-2.6366,-2.6393,-2.6411,-2.6436,-2.65,-2.6502,-2.653,-2.654,-2.6549,-2.6556,-2.6592,-2.6605,-2.6465,-2.6465,-2.6464,0,0,-2.628,-2.6286,-2.6306,-2.6337,-2.6346,-2.6378,-2.6332,-2.6367,-2.6391,-2.6355,-2.6402,-2.6404,-2.6418,-2.6475,-2.65,-2.648,-2.6595,-2.6556,-2.6563,-2.6566,-2.6599,-2.6612,-2.6624,-2.6469,-2.6468,-2.6467,0,0,-2.6365,-2.6372,-2.6417,-2.6427,-2.6441,-2.6437,-2.6447,-2.6456,-2.6456,-2.6503,-2.6477,-2.6505,-2.6552,-2.6563,-2.6575,-2.6666,-2.6645,-2.6674,-2.6727,-2.6762,-2.6773,-2.6783,-2.6817,-2.6829,-2.6681,-2.6681,-2.6682,0,-2.641,-2.6457,-2.6442,-2.648,-2.6495,-2.6464,-2.6509,-2.6519,-2.6541,-2.6552,-2.6528,-2.6588,-2.6594,-2.6655,-2.6677,-2.6687,-2.67,-2.6673,-2.6773,-2.6782,-2.6791,-2.6824,-2.6836,-2.6685,-2.6685,-2.6684,-2.6684,0,-2.6512,-2.6546,-2.658,-2.6603,-2.6621,-2.6663,-2.6654,-2.6674,-2.6661,-2.666,-2.6708,-2.6716,-2.6742,-2.6755,-2.6743,-2.6815,-2.6801,-2.6776,-2.6734,-2.6809,-2.6839,-2.6851,-2.669,-2.6689,-2.6688,-2.6687,0,0,-2.663,-2.6645,-2.6658,-2.6668,-2.6682,-2.6708,-2.6748,-2.6775,-2.6793,-2.6809,-2.6843,-2.6884,-2.6861,-2.6875,-2.6863,-2.6894,-2.6968,-2.6864,-2.6865,-2.6885,-2.7049,-2.7069,-2.7084,-2.6953,-2.6955,-2.6957,-2.7048,0,-2.6716,-2.6786,-2.6774,-2.6843,-2.6874,-2.6845,-2.6881,-2.6893,-2.6893,-2.692,-2.6918,-2.6949,-2.6915,-2.6923,-2.6952,-2.6953,-2.7001,-2.6946,-2.6986,-2.6987,-2.6985,-2.7099,-2.712,-2.7206,-2.706,-2.7062,-2.7063,0,-2.6825,-2.6847,-2.6919,-2.6929,-2.6942,-2.6974,-2.6998,-2.7024,-2.7038,-2.7035,-2.7052,-2.7035,-2.7076,-2.7033,-2.709,-2.7053,-2.7068,-2.7071,-2.7074,-2.7078,-2.7031,-2.7108,-2.7233,-2.7247,-2.7081,-2.708,-2.7079,0,-2.6906,-2.6953,-2.7002,-2.7012,-2.7025,-2.7049,-2.7055,-2.7067,-2.7084,-2.7105,-2.7116,-2.7141,-2.7156,-2.7176,-2.7167,-2.7136,-2.7226,-2.7182,-2.7226,-2.7226,-2.7247,-2.7246,-2.7378,-2.7255,-2.7254,-2.7254,-2.7254,0,-2.7004,-2.705,-2.7039,-2.707,-2.712,-2.7106,-2.7156,-2.7159,-2.717,-2.7201,-2.7177,-2.7207,-2.7192,-2.7221,-2.7213,-2.7263,-2.7269,-2.7268,-2.7266,-2.7271,-2.7272,-2.7282,-2.7277,-2.7258,-2.7257,-2.7256,-2.7256,0,-2.7103,-2.7097,-2.715,-2.7158,-2.7162,-2.7199,-2.7206,-2.7235,-2.7233,-2.7272,-2.7281,-2.7278,-2.731,-2.7303,-2.7338,-2.7334,-2.7396,-2.7385,-2.7392,-2.739,-2.7435,-2.7431,-2.7579,-2.7598,-2.7462,-2.7463,-2.7464,0,-2.7167,-2.7201,-2.7214,-2.7233,-2.7242,-2.7273,-2.7291,-2.7278,-2.7298,-2.7318,-2.7345,-2.7375,-2.7399,-2.7453,-2.7454,-2.7481,-2.7472,-2.7522,-2.7476,-2.7481,-2.7475,-2.7474,-2.7478,-2.7532,-2.7533,-2.7535,-2.7536,0,-2.7281,-2.7276,-2.7303,-2.733,-2.7352,-2.7372,-2.739,-2.7407,-2.7396,-2.7419,-2.7453,-2.7472,-2.7509,-2.754,-2.7566,-2.7572,-2.7553,-2.755,-2.7562,-2.7568,-2.7571,-2.7572,-2.7418,-2.7547,-2.7546,-2.7545,-2.7544,-2.7544,-2.7365,-2.7395,-2.7409,-2.744,-2.7453,-2.747,-2.7498,-2.75,-2.7528,-2.7558,-2.7548,-2.7587,-2.7601,-2.7634,-2.7644,-2.7674,-2.7655,-2.7672,-2.7677,-2.7682,-2.7688,-2.7565,-2.7679,-2.7678,-2.7678,-2.7678,-2.7677,0,-2.7479,-2.7487,-2.7516,-2.7542,-2.7567,-2.7546,-2.7565,-2.7588,-2.7622,-2.7637,-2.7662,-2.7701,-2.7732,-2.7735,-2.7765,-2.7788,-2.778,-2.7797,-2.7795,-2.7798,-2.7702,-2.769,-2.7803,-2.7803,-2.7803,-2.7803,-2.7803,-2.7803,-2.7541,-2.7592,-2.759,-2.7646,-2.7654,-2.7692,-2.7705,-2.7721,-2.7734,-2.7779,-2.7804,-2.7807,-2.7818,-2.7848,-2.7875,-2.7875,-2.7888,-2.7908,-2.7905,-2.7816,-2.7804,-2.7792,-2.778,-2.7911,-2.7911,-2.7998,-2.7999,-2.8]},{"header":{"parameterUnit":"m.s-1","parameterCategory":1,"la1":30.2991,"la2":30.254,"lo1":-89.0895,"lo2":-89.0444,"dy":0.0017,"dx":0.0017,"nx":28,"ny":28,"refTime":"2024-10-20T21:00:00:Z","depth":0,"parameterNumber":3,"parameterNumberName":"V-component_of_WINDS"},"data":[0,0,0,0,0,0,0,0,0,0,0,0,0,0,0,0,0,0,0,0,0,0,0,0,0,0,0,0,0,0,0,0,0,0,0,0,0,0,0,0,0,0,0,0,0,0,0,0,0,0,0,0,0,0,0,0,0,0,-1.4918,-1.4918,0,-1.4892,-1.4891,-1.4891,-1.4834,-1.4833,-1.4832,-1.483,-1.4805,-1.4805,-1.4805,0,0,0,0,0,0,0,0,0,0,0,0,0,-1.492,-1.4921,-1.4918,-1.4918,-1.4918,-1.4892,-1.4891,-1.4891,-1.4834,-1.4833,-1.4831,-1.483,-1.4804,-1.4805,-1.4805,0,0,0,0,0,0,0,0,0,0,0,0,0,-1.4909,-1.4921,-1.4918,-1.4886,-1.4883,-1.4892,-1.4891,-1.4891,-1.4834,-1.4833,-1.4831,-1.4829,-1.4804,-1.4805,-1.4805,-1.4844,0,0,-1.4807,-1.4808,0,0,0,0,0,0,0,0,-1.491,-1.4909,-1.4891,-1.4888,-1.4885,-1.4864,-1.4883,-1.4875,-1.4835,-1.4853,-1.483,-1.4828,-1.4826,-1.4825,-1.4824,-1.4843,-1.4842,-1.4807,-1.4808,-1.4808,-1.4808,0,0,0,0,0,0,0,-1.4911,-1.491,-1.4908,-1.4891,-1.4887,-1.4873,-1.487,-1.4881,-1.485,-1.4851,-1.4847,-1.4845,-1.4824,-1.4823,-1.4823,-1.4841,-1.4807,-1.4808,-1.4808,-1.4808,-1.4891,-1.4893,0,0,0,0,0,0,-1.4916,-1.4911,-1.4909,-1.4907,-1.4893,-1.4875,-1.4871,-1.4873,-1.4849,-1.4844,-1.4846,-1.4842,-1.4823,-1.4822,-1.4821,-1.4865,-1.4808,-1.4809,-1.4809,-1.4889,-1.4891,-1.4893,0,0,0,0,0,0,-1.4916,-1.4916,-1.491,-1.4908,-1.4906,-1.4876,-1.4879,-1.4873,-1.4872,-1.4845,-1.484,-1.4851,-1.4822,-1.4821,-1.4839,-1.4863,-1.4809,-1.4809,-1.4887,-1.489,-1.4892,-1.4953,0,0,0,0,0,0,-1.4917,-1.4917,-1.4931,-1.4909,-1.4906,-1.4928,-1.4881,-1.4874,-1.4873,-1.4868,-1.4849,-1.4844,-1.482,-1.4838,-1.4839,-1.4863,-1.481,-1.4884,-1.4888,-1.4891,-1.4948,-1.4957,-1.4965,0,0,0,0,0,-1.4917,-1.495,-1.4932,-1.4932,-1.4923,-1.4929,-1.4928,-1.49,-1.4875,-1.489,-1.4872,-1.4844,-1.486,-1.4841,-1.4841,-1.4866,-1.4883,-1.4887,-1.4891,-1.4945,-1.4955,-1.4964,0,0,0,0,0,0,-1.4976,-1.4946,-1.4926,-1.4953,-1.4944,-1.4919,-1.4936,-1.4912,-1.491,-1.4905,-1.487,-1.4867,-1.4889,-1.4879,-1.4858,-1.4902,-1.4867,-1.4872,-1.4908,-1.4918,-1.4926,-1.4928,-1.481,0,0,0,0,0,-1.4992,-1.4999,-1.4972,-1.4998,-1.4995,-1.4966,-1.4968,-1.4947,-1.4936,-1.4933,-1.4916,-1.4908,-1.4911,-1.4913,-1.4915,-1.4946,-1.4941,-1.4964,-1.4972,-1.4979,-1.4983,-1.4999,-1.5008,-1.4907,-1.4907,-1.4907,0,0,-1.5026,-1.501,-1.5017,-1.501,-1.5,-1.5008,-1.4964,-1.4974,-1.498,-1.4934,-1.495,-1.4938,-1.4926,-1.4951,-1.4962,-1.4944,-1.501,-1.4984,-1.4989,-1.499,-1.5004,-1.5014,-1.5022,-1.4909,-1.4909,-1.4909,0,0,-1.5091,-1.508,-1.51,-1.5091,-1.5077,-1.5058,-1.5063,-1.5042,-1.5032,-1.5048,-1.5014,-1.502,-1.5026,-1.5019,-1.5016,-1.5077,-1.5052,-1.5079,-1.5122,-1.5138,-1.5146,-1.5152,-1.5175,-1.5183,-1.5083,-1.5083,-1.5084,0,-1.5134,-1.5145,-1.5113,-1.5126,-1.5124,-1.5082,-1.5102,-1.5096,-1.5083,-1.5083,-1.5063,-1.5069,-1.5058,-1.5081,-1.5096,-1.5095,-1.5099,-1.5081,-1.5147,-1.5153,-1.516,-1.518,-1.5189,-1.5087,-1.5086,-1.5086,-1.5086,0,-1.5199,-1.5207,-1.5224,-1.5213,-1.5213,-1.5229,-1.5201,-1.5204,-1.5183,-1.5166,-1.5183,-1.5168,-1.5165,-1.5169,-1.5149,-1.5189,-1.5178,-1.5153,-1.5118,-1.5173,-1.5192,-1.52,-1.5092,-1.509,-1.5089,-1.5089,0,0,-1.5301,-1.5271,-1.5279,-1.5273,-1.5254,-1.526,-1.5274,-1.5271,-1.5275,-1.5268,-1.5279,-1.5285,-1.5261,-1.5258,-1.5237,-1.5251,-1.53,-1.5223,-1.5223,-1.5238,-1.5344,-1.5363,-1.5373,-1.5283,-1.5284,-1.5285,-1.5345,0,-1.5362,-1.5385,-1.5357,-1.5385,-1.5392,-1.5352,-1.5365,-1.5355,-1.534,-1.5343,-1.5326,-1.5331,-1.5299,-1.5297,-1.5309,-1.5292,-1.5321,-1.5287,-1.5294,-1.5294,-1.5298,-1.5383,-1.5403,-1.546,-1.5352,-1.5353,-1.5354,0,-1.5436,-1.5432,-1.5461,-1.5441,-1.5442,-1.5454,-1.5449,-1.5453,-1.5441,-1.5429,-1.5425,-1.5399,-1.5412,-1.5377,-1.5394,-1.5372,-1.5373,-1.5365,-1.5366,-1.5366,-1.5328,-1.5385,-1.5477,-1.5486,-1.5365,-1.5365,-1.5364,0,-1.5508,-1.551,-1.5527,-1.5523,-1.55,-1.5509,-1.55,-1.5486,-1.5486,-1.5481,-1.5481,-1.5478,-1.5477,-1.5476,-1.545,-1.5427,-1.547,-1.5433,-1.5461,-1.5461,-1.5472,-1.5472,-1.5566,-1.5472,-1.5472,-1.5472,-1.5472,0,-1.5579,-1.5599,-1.5559,-1.557,-1.5591,-1.5558,-1.558,-1.5567,-1.5555,-1.5562,-1.5528,-1.5536,-1.5501,-1.5506,-1.5485,-1.5503,-1.5503,-1.5493,-1.5488,-1.5496,-1.5498,-1.5497,-1.5492,-1.5474,-1.5474,-1.5473,-1.5473,0,-1.5663,-1.5637,-1.5654,-1.563,-1.5624,-1.5641,-1.562,-1.5629,-1.5611,-1.5622,-1.5622,-1.5594,-1.5598,-1.5572,-1.557,-1.5557,-1.5584,-1.5571,-1.5588,-1.5584,-1.5613,-1.5611,-1.571,-1.5722,-1.5621,-1.5622,-1.5622,0,-1.571,-1.5724,-1.5702,-1.5704,-1.5696,-1.5701,-1.5701,-1.5669,-1.567,-1.5657,-1.5668,-1.5669,-1.5667,-1.5675,-1.5654,-1.5653,-1.564,-1.5675,-1.564,-1.5649,-1.5641,-1.5641,-1.5642,-1.5683,-1.5684,-1.5685,-1.5686,0,-1.5797,-1.5783,-1.5784,-1.578,-1.578,-1.5776,-1.5769,-1.5773,-1.5739,-1.5742,-1.5745,-1.5744,-1.5742,-1.5743,-1.5738,-1.5728,-1.5702,-1.5697,-1.5704,-1.5713,-1.5722,-1.5718,-1.5608,-1.5695,-1.5694,-1.5694,-1.5693,-1.5693,-1.5864,-1.5875,-1.586,-1.5862,-1.5853,-1.5848,-1.5855,-1.5838,-1.584,-1.5835,-1.5817,-1.5823,-1.581,-1.58,-1.5793,-1.5798,-1.5781,-1.579,-1.5792,-1.5795,-1.5801,-1.5721,-1.5797,-1.5796,-1.5796,-1.5796,-1.5796,0,-1.5949,-1.5938,-1.594,-1.5931,-1.5932,-1.5907,-1.5898,-1.5901,-1.5906,-1.5897,-1.5896,-1.5899,-1.59,-1.5879,-1.5877,-1.5885,-1.5873,-1.5886,-1.5885,-1.5883,-1.5816,-1.581,-1.5895,-1.5895,-1.5895,-1.5895,-1.5895,-1.5895,-1.5994,-1.601,-1.5995,-1.6007,-1.5995,-1.6001,-1.5998,-1.5993,-1.5984,-1.599,-1.599,-1.5976,-1.5962,-1.5959,-1.5958,-1.5952,-1.5953,-1.597,-1.596,-1.5898,-1.5888,-1.5879,-1.5874,-1.5971,-1.5971,-1.6028,-1.6028,-1.6029]}]]